Loading…
Loading…
Loading…
Loading…
Loading parcel record…
Lawrence, NJ·Mercer County
Owner email, phone, and authorized agent are available on Pro.
| Date | Price | Book / Page | Verified by |
|---|---|---|---|
| 6/20/2017 | $150,000 | 6293 / 649 | Tax assessor |
| 5/11/2010 | $186,000 | 6053 / 653 | Tax assessor |
| 3/2/2004 | $100,000 | 4741 / 270 | Tax assessor |
Activity captured from the county clerk's daily feed. Includes deeds, mortgages, and other recorded filings.
| Date | Type | Grantor | Grantee | Book / Page | Instrument |
|---|---|---|---|---|---|
| 2024-09-13 | DEED | — | — | 6568 / 1111 | 2024032079 |
| 2023-08-14 | MORTGAGE | — | — | 11826 / 777 | 2023027965 |
| 2023-06-30 | DEED | — | — | 6527 / 646 | 2023022743 |
| 2022-06-30 | DEED | — | — | 6490 / 1300 | 2022031495 |
| 2021-08-19 | DEED | — | — | 6453 / 455 | 2021050469 |
| 2021-06-29 | DEED | — | — | 6446 / 672 | 2021039124 |
| 2021-06-21 | NOTICE OF SETTLEMENT | — | — | 1556 / 1067 | 2021037261 |
| 2021-06-21 | NOTICE OF SETTLEMENT | — | — | 1556 / 1063 | 2021037260 |
| 2020-11-30 | MORTGAGE | — | — | 11548 / 1149 | 2020055133 |
| 2020-11-30 | DEED | — | — | 6422 / 1475 | 2020055132 |
| 2020-08-27 | MORTGAGE | — | — | 11514 / 1100 | 2020036405 |
| 2020-07-20 | NOTICE OF SETTLEMENT | — | — | 1534 / 615 | 2020030084 |
| 2020-07-09 | MORTGAGE | — | — | 11502 / 1357 | 2020028639 |
| 2019-10-16 | MORTGAGE | — | — | 11440 / 1341 | 2019044820 |
| 2019-06-07 | DEED | — | — | 6369 / 1649 | 2019023469 |
| 2019-01-02 | DEED | — | — | 6353 / 1134 | 2019000072 |
| 2018-11-29 | DEED | — | — | 6350 / 11 | 2018050662 |
| 2018-04-23 | DEED | — | — | 6324 / 7 | 2018016714 |
| 2017-07-21 | DEED | — | — | 6293 / 649 | 2017033279 |
| 2016-01-13 | DEED | — | — | 6238 / 1612 | 2016003081 |
| 2014-05-01 | MORTGAGE | — | — | 11064 / 1536 | 2014017437 |
| 2013-12-16 | DEED | — | — | 6184 / 1218 | 2013067331 |
| 2012-12-10 | DEED | — | — | 6160 / 1770 | 2012062059 |
| 2012-08-21 | DEED | — | — | 6154 / 574 | 2012040683 |
| 2012-06-19 | NOTICE OF LIS PENDENS | — | — | 400 / 904 | 2012028897 |
| 2007-08-07 | DEED-REGULAR/OVER $350,000 | — | — | 5691 / 84 | 2007036182 |
| 2007-05-31 | DISCHARGE & AMEND CONTRUC LIEN | — | — | 43 / 227 | 2007015269 |
| 2007-05-02 | CONSTRUCTION LIEN CLAIM | — | — | 43 / 177 | 2007012164 |
| 2000-12-19 | ARL | — | — | 5663 / 161 | 2000048822 |
| 2000-12-19 | DD1 | — | — | 3968 / 236 | 2000048820 |